www.pogodaiklimat.ru

Погода и климат >> Архив погоды >> Саудовская Аравия >> Al-Jouf


ПОГОДА в Al-Jouf

  • Прогноз погоды в Al-Jouf
  • Монитор погоды в Al-Jouf
  • Климат города

АРХИВ ПОГОДЫ в Al-Jouf

Время (UTC), дата Ветер
(напр.,м/с)
 
Видим.   Явления Облачность Т
(С)
Тd
(С)
f
(%)
Тe
(С)
Тes
(С)
Комфортность P
(гПа)
Po
(гПа)
Тmin
(С)
Tmax
(С)
R
(мм)
R24
(мм)
S
(см)
21 10.12 ЮВ 3 10 км 4/3 1200 м
[Sc As trans]
+11.2 +8.0 81 +9 +9 1020.7 943.5
00 11.12 ЮВ 4 10 км ясно +10.1 +8.0 87 +8 +8 1020.1 942.9
03 11.12 ЮВ 3 10 км ясно +9.2 +7.0 86 +7 +7 1020.8 943.1
06 11.12 ЮВ 2 10 км ясно +11.6 +9.0 84 +10 +13 1022.3 944.4 +8.9
09 11.12 Ю 4 10 км ясно +18.0 +9.0 56 +18 +23 1020.4 943.3
12 11.12 ЮЗ 4 10 км ясно +20.3 +4.0 34 +21 +24 комфорт 1018.8 942.0
15 11.12 штиль 0 10 км ясно +16.5 +6.0 50 +16 +16 1020.3 942.8
18 11.12 ЮВ 2 10 км ясно +14.0 +7.0 63 +14 +14 1020.6 943.4 +20.4
21 11.12 ЮВ 3 10 км ясно +11.1 +6.0 71 +9 +9 1020.1 943.2
00 12.12 Ю 3 10 км ясно +9.9 +6.0 77 +8 +8 1019.3 942.5
03 12.12 ЮВ 2 10 км ясно +9.3 +7.0 86 +8 +8 1019.6 942.2
06 12.12 штиль 0 10 км ясно +11.9 +8.0 77 +11 +14 1021.7 943.9 +9.3
09 12.12 З 2 10 км ясно +17.8 +7.0 49 +18 +26 1020.2 943.0
12 12.12 ЮЗ 4 10 км ясно +20.7 +5.0 36 +22 +24 комфорт 1017.9 941.2
15 12.12 ЮЗ 2 10 км ясно +16.9 +6.0 49 +17 +17 1018.9 941.7
18 12.12 З 3 10 км ясно +13.1 +7.0 66 +12 +12 1020.1 942.9 +20.7
21 12.12 СЗ 2 10 км ясно +11.0 +7.0 76 +10 +10 1020.0 943.2
00 13.12 З 2 10 км ясно +9.1 +7.0 87 +7 +7 1020.9 943.8
03 13.12 СЗ 3 10 км ясно +10.5 +5.0 69 +9 +9 1022.2 944.5
06 13.12 штиль 0 10 км ясно +12.3 +6.0 65 +12 +15 1024.4 946.5 +9.1
09 13.12 СЗ 3 10 км ясно +16.8 +6.0 49 +17 +24 1023.6 946.0
12 13.12 СЗ 3 10 км ясно +18.6 +5.0 41 +19 +23 1022.2 945.0
15 13.12 С 2 10 км ясно +15.4 +6.0 53 +16 +16 1023.7 945.9
18 13.12 СЗ 2 10 км ясно +13.3 +6.0 61 +13 +13 1024.8 947.1 +18.6
21 13.12 штиль 0 10 км ясно +11.8 +6.0 68 +11 +11 1025.1 947.7
00 14.12 ЮВ 2 10 км ясно +10.1 +7.0 81 +9 +9 1025.2 947.7
03 14.12 В 2 10 км ясно +9.1 +6.0 81 +8 +8 1025.7 947.6
06 14.12 СВ 2 10 км ясно +11.2 +7.0 75 +10 +13 1027.4 949.1 +9.1
09 14.12 ЮВ 4 10 км ясно +17.2 +6.0 48 +17 +23 1025.8 948.2
12 14.12 В 3 10 км 3/0
[Cs]
+18.8 +4.0 37 +19 +23 1024.0 946.6
15 14.12 В 3 10 км ясно +15.5 +5.0 50 +15 +15 1025.2 947.2
18 14.12 В 3 10 км ясно +13.1 +6.0 62 +12 +12 1026.3 948.4 +18.8
21 14.12 В 4 10 км ясно +12.2 +6.0 66 +11 +11 1025.6 948.3
00 15.12 В 4 10 км ясно +12.4 +6.0 65 +11 +11 1024.9 947.8
03 15.12 В 2 10 км 4/4 1200 м
[Sc]
+11.7 +6.0 68 +11 +11 1025.5 947.7
06 15.12 В 4 10 км 9/3 1200 м
[Sc As op]
+12.8 +6.0 63 +11 +11 1026.5 948.5 +11.7
09 15.12 В 7 10 км 9/3 1200 м
[Sc As trans]
+16.7 +2.0 37 +16 +16 1024.8 947.4
12 15.12 ЮВ 7 10 км 4/0
[Cs]
+19.2 +5.0 39 +19 +20 1022.3 945.4
15 15.12 В 4 10 км 3/0
[Cs]
+15.6 +5.0 49 +15 +15 1023.4 945.9
18 15.12 В 4 10 км ясно +13.1 +5.0 58 +12 +12 1024.5 946.8 +19.2
21 15.12 В 3 10 км ясно +11.1 +5.0 66 +10 +10 1023.4 946.2
00 16.12 В 2 10 км ясно +10.3 +5.0 70 +9 +9 1022.7 945.5
03 16.12 В 3 10 км ясно +10.3 +5.0 70 +8 +8 1022.6 944.8
06 16.12 В 3 10 км 8/8 1200 м
[Sc]
+11.8 +6.0 68 +10 +11 1023.3 945.4 +9.9
09 16.12 ЮВ 7 10 км 1/0
[As trans]
+18.6 +9.0 54 +18 +21 1020.3 943.3
12 16.12 ЮВ 7 10 км 3/3 1200 м
[Sc]
+20.7 +9.0 47 +22 +23 комфорт 1017.7 941.1
15 16.12 В 4 8000 м пыль 5/5 1200 м
[Sc]
+18.6 +10.0 57 +19 +19 1018.9 941.9
18 16.12 В 4 7000 м пыль 8/8 1200 м
[Sc]
+16.9 +11.0 68 +16 +16 1018.3 941.6 +20.9
21 16.12 ЮВ 5 8000 м пыль 8/5 1200 м
[Sc Ac trans]
+15.4 +10.0 70 +14 +14 1016.1 940.1
00 17.12 Ю 2 7000 м пыль {метель} 5/5 1200 м
[Sc]
+15.6 +11.0 74 +16 +16 1015.6 939.0 0.2
03 17.12 ЮЗ 5 6000 м пыль 5/5 1200 м
[Sc]
+16.5 +12.0 75 +16 +16 1015.4 938.7
06 17.12 ЮЗ 3 10 км 3/0
[Ci sp]
+16.8 +11.0 69 +17 +18 1015.9 939.7 +15.2
09 17.12 З 9 10 км 4/0
[Ac trans]
+19.5 +11.0 58 +20 +21 1015.3 939.3
12 17.12 З 8 10 км 6/1 1200 м
[Sc Ac trans]
+19.9 +7.0 43 +20 +21 1014.6 938.8 0.1
15 17.12 З 5 10 км 4/0
[Ac trans]
+16.9 +5.0 45 +16 +16 1017.5 941.1

 

Местоположение метеостанции Al-Jouf (Саудовская Аравия): широта 29.78 долгота 40.10 высота над уровнем моря 689 м.

В архиве по умолчанию представлена погода в Al-Jouf за последнюю неделю. Архивные данные за месяц целиком и за предыдущие месяцы, начиная с января 2011 года, Вы можете получить, выбрав интересующий диапазон дат из раскрывающегося списка и нажав кнопку "Ввод!".


*Определитесь, кто Вы:
робот инопланетянин человек

Внимание! Время в таблицах - всемирное. Для получения местного времени необходимо прибавить поправку, которая в Al-Jouf равна 3 ч.

Смотрите также архив погоды в соседних городах и на ближайших метеорологических станциях:

Погода в Arar (Саудовская Аравия) (159 км)
Погода в Turaif (Саудовская Аравия) (249 км)
Погода в Hail (Саудовская Аравия) (304 км)
Погода в Al-Nukhib (Ирак) (324 км)
Погода в Gurayat (Саудовская Аравия) (325 км)
Погода в Rafha (Саудовская Аравия) (327 км)
Погода в Ruwaished (Иордания) (352 км)
Погода в Rutbah (Ирак) (362 км)
Погода в Tabuk (Саудовская Аравия) (374 км)
Погода в Safawi (Иордания) (391 км)

Пояснения к столбцам:

Ветер - указаны скорость ветра в м/с - средняя за 10 мин, порывы в срок и между сроками (в фигурных скобках) и направление, откуда дует ветер: С - северный, СВ - северо-восточный, В - восточный, ЮВ - юго-восточный, Ю - южный, ЮЗ - юго-западный, З - западный, СЗ - северо-западный.
Видимость - горизонтальная дальность видимости в метрах или километрах. При видимости от 1 до 10 км при отсутствии осадков обычно наблюдается дымка, при ухудшении видимости до 1 км и менее - туман. В сухую погоду видимость может ухудшаться дымом, пылью или мглою.
Явления - указаны атмосферные явления, наблюдавшиеся в срок или в последний час перед сроком; фигурными скобками обозначены явления, наблюдавшиеся между сроками (за 1-3 часа до срока); квадратными скобками обозначены град или гололедные отложения с указанием их диаметра в мм.
Облачность - указаны через наклонную черту общая и нижняя облачность в баллах и высота нижней границы облаков в метрах; квадратными скобками обозначены формы облаков: Ci - перистые, Cs - перисто-слоистые, Cc - перисто-кучевые, Ac - высококучевые, As - высокослоистые, Sc - слоисто-кучевые, Ns - слоисто-дождевые, Cu - кучевые, Cb - кучево-дождевые. Подробнее классификацию облаков см. в Атласе облаков (PDF).
T - Температура воздуха - температура, измеренная на высоте 2 м над землей.
Td - Температура точки росы - температура, при понижении до которой содержащийся в воздухе водяной пар достигнет насыщения.
f - Относительная влажность воздуха - влажноcть воздуха, измеренная на высоте 2 м над землей.
Te - Эффективная температура - температура, которую ощущает одетый по сезону человек в тени. Характеристика душности погоды. При расчете учитывается влияние влажности воздуха и скорости ветра на теплоощущения человека.
Tes - Эффективная температура на солнце - температура, которую ощущает человек, с поправкой на солнечный нагрев. Характеристика знойности погоды. Зависит от высоты солнца над горизонтом, облачности и скорости ветра. Ночью, в пасмурную погоду, а также при ветре 12 м/с и более поправка равна нулю.
P - Атмосферное давление - приведенное к уровню моря атмосферное давление.
Po - Атмосферное давление - измеренное на уровне метеостанции атмосферное давление.
Tmin - Минимальная температура - минимум температуры воздуха на высоте 2 м над землей.
Tmax - Максимальная температура - максимум температуры воздуха на высоте 2 м над землей.
R - Количество осадков - Количество выпавших осадков за период времени, мм. При наведении курсора мыши на число - период времени, за который выпало указанное количество осадков.
R24 - Количество осадков - Количество выпавших осадков за 24 часа, мм.
S - Снежный покров - Высота снежного покрова, см. При наведении курсора мыши на число - состояние снежного покрова и степень покрытия местности в баллах.